When you browse on this site, cookies collect data to enhance your experience and personalize the content and advertising you see.
Visit our Privacy Policy to learn more. By continuing to use the site, you agree to this use of cookies and data.
  • En España
  • Lista de países
  • Para 7 días
  • Temperatura del agua
  • Mapa Satelital
  • El tiempo en el mapa
  • Informadores
  • user-avatar
    Iniciar sesión

    Tiempo cada hora Agartala

    Hoy, 23 Abril, Martes

    Tiempo Temperatura Precipitaciones Viento Presión Humedad
    00:00 +27°C° 0 mm 1 mps 754 mmHg 52%
    01:00 +27°C° 0 mm 1 mps 754 mmHg 53%
    02:00 +27°C° 0 mm 1 mps 754 mmHg 54%
    03:00 +26°C° 0 mm 1 mps 754 mmHg 55%
    04:00 +26°C° 0 mm 1 mps 754 mmHg 55%
    05:00 +26°C° 0 mm 1 mps 754 mmHg 55%
    06:00 +26°C° 0 mm 1 mps 754 mmHg 55%
    07:00 +29°C° 0 mm 1 mps 755 mmHg 48%
    08:00 +32°C° 0 mm 2 mps 755 mmHg 40%
    09:00 +36°C° 0 mm 2 mps 755 mmHg 33%
    10:00 +37°C° 0 mm 2 mps 755 mmHg 30%
    11:00 +38°C° 0 mm 2 mps 755 mmHg 27%
    12:00 +40°C° 0 mm 2 mps 755 mmHg 24%
    13:00 +40°C° 0 mm 3 mps 754 mmHg 24%
    14:00 +40°C° 0 mm 3 mps 753 mmHg 23%
    15:00 +40°C° 0 mm 3 mps 752 mmHg 23%
    16:00 +39°C° 0 mm 3 mps 752 mmHg 26%
    17:00 +37°C° 0 mm 2 mps 752 mmHg 29%
    18:00 +36°C° 0 mm 2 mps 752 mmHg 33%
    19:00 +35°C° 0 mm 2 mps 753 mmHg 34%
    20:00 +32°C° 0 mm 2 mps 753 mmHg 36%
    21:00 +31°C° 0 mm 1 mps 754 mmHg 37%
    22:00 +31°C° 0 mm 1 mps 754 mmHg 39%
    23:00 +30°C° 0 mm 1 mps 755 mmHg 41%

    Mañana, 24 Abril, Miércoles

    Tiempo Temperatura Precipitaciones Viento Presión Humedad
    00:00 +30°C° 0 mm 1 mps 755 mmHg 43%
    01:00 +29°C° 0 mm 1 mps 755 mmHg 44%
    02:00 +28°C° 0 mm 1 mps 754 mmHg 46%
    03:00 +26°C° 0 mm 0 mps 754 mmHg 48%
    04:00 +26°C° 0 mm 0 mps 754 mmHg 49%
    05:00 +28°C° 0 mm 1 mps 754 mmHg 50%
    06:00 +27°C° 0 mm 1 mps 755 mmHg 51%
    07:00 +30°C° 0 mm 1 mps 755 mmHg 44%
    08:00 +33°C° 0 mm 1 mps 756 mmHg 37%
    09:00 +36°C° 0 mm 1 mps 756 mmHg 30%
    10:00 +39°C° 0 mm 2 mps 756 mmHg 28%
    11:00 +40°C° 0 mm 2 mps 755 mmHg 25%
    12:00 +42°C° 0 mm 2 mps 755 mmHg 22%
    13:00 +42°C° 0 mm 2 mps 754 mmHg 22%
    14:00 +43°C° 0 mm 3 mps 753 mmHg 22%
    15:00 +43°C° 0 mm 3 mps 752 mmHg 22%
    16:00 +40°C° 0 mm 3 mps 752 mmHg 25%
    17:00 +39°C° 0 mm 2 mps 752 mmHg 29%
    18:00 +37°C° 0 mm 2 mps 752 mmHg 32%
    19:00 +36°C° 0 mm 2 mps 753 mmHg 33%
    20:00 +34°C° 0 mm 1 mps 753 mmHg 35%
    21:00 +33°C° 0 mm 1 mps 754 mmHg 36%
    22:00 +32°C° 0 mm 1 mps 754 mmHg 38%
    23:00 +32°C° 0 mm 1 mps 754 mmHg 40%

    Pasado mañana, 25 Abril, Jueves

    Tiempo Temperatura Precipitaciones Viento Presión Humedad
    00:00 +31°C° 0 mm 1 mps 754 mmHg 42%
    01:00 +30°C° 0 mm 1 mps 754 mmHg 44%
    02:00 +30°C° 0 mm 1 mps 753 mmHg 45%
    03:00 +29°C° 0 mm 1 mps 753 mmHg 46%
    04:00 +29°C° 0 mm 1 mps 753 mmHg 47%
    05:00 +29°C° 0 mm 1 mps 754 mmHg 49%
    06:00 +29°C° 0 mm 1 mps 754 mmHg 50%
    07:00 +32°C° 0 mm 1 mps 754 mmHg 44%
    08:00 +35°C° 0 mm 1 mps 755 mmHg 38%
    09:00 +39°C° 0 mm 1 mps 755 mmHg 32%
    10:00 +40°C° 0 mm 1 mps 755 mmHg 29%
    11:00 +41°C° 0 mm 2 mps 755 mmHg 26%
    12:00 +43°C° 0 mm 2 mps 754 mmHg 23%
    13:00 +42°C° 0 mm 2 mps 753 mmHg 23%
    14:00 +42°C° 0 mm 2 mps 752 mmHg 23%
    15:00 +42°C° 0 mm 2 mps 751 mmHg 23%
    16:00 +41°C° 0 mm 2 mps 751 mmHg 26%
    17:00 +40°C° 0 mm 2 mps 751 mmHg 28%
    18:00 +37°C° 0 mm 1 mps 751 mmHg 30%
    19:00 +36°C° 0 mm 1 mps 752 mmHg 31%
    20:00 +35°C° 0 mm 1 mps 753 mmHg 32%
    21:00 +32°C° 0 mm 0 mps 753 mmHg 33%
    22:00 +33°C° 0 mm 1 mps 753 mmHg 36%
    23:00 +32°C° 0 mm 1 mps 753 mmHg 38%

    26 Abril, Viernes

    Tiempo Temperatura Precipitaciones Viento Presión Humedad
    00:00 +32°C° 0 mm 1 mps 753 mmHg 41%
    01:00 +31°C° 0 mm 1 mps 753 mmHg 43%
    02:00 +30°C° 0 mm 1 mps 752 mmHg 45%
    03:00 +30°C° 0 mm 1 mps 752 mmHg 47%
    04:00 +29°C° 0 mm 1 mps 752 mmHg 50%
    05:00 +29°C° 0 mm 2 mps 752 mmHg 54%
    06:00 +29°C° 0 mm 2 mps 753 mmHg 57%
    07:00 +31°C° 0 mm 2 mps 753 mmHg 49%
    08:00 +35°C° 0 mm 2 mps 754 mmHg 41%
    09:00 +37°C° 0 mm 1 mps 754 mmHg 33%
    10:00 +40°C° 0 mm 2 mps 754 mmHg 29%
    11:00 +41°C° 0 mm 2 mps 753 mmHg 25%
    12:00 +43°C° 0 mm 2 mps 753 mmHg 21%
    13:00 +43°C° 0 mm 2 mps 752 mmHg 21%
    14:00 +44°C° 0 mm 3 mps 751 mmHg 20%
    15:00 +44°C° 0 mm 3 mps 750 mmHg 20%
    16:00 +42°C° 0 mm 2 mps 750 mmHg 23%
    17:00 +40°C° 0 mm 2 mps 750 mmHg 25%
    18:00 +39°C° 0 mm 1 mps 750 mmHg 28%
    19:00 +37°C° 0 mm 2 mps 751 mmHg 33%
    20:00 +36°C° 0 mm 2 mps 751 mmHg 38%
    21:00 +34°C° 0 mm 2 mps 752 mmHg 43%
    22:00 +32°C° 0 mm 2 mps 752 mmHg 46%
    23:00 +32°C° 0 mm 2 mps 752 mmHg 49%

    27 Abril, Sábado

    Tiempo Temperatura Precipitaciones Viento Presión Humedad
    00:00 +31°C° 0 mm 2 mps 752 mmHg 52%
    01:00 +30°C° 0 mm 2 mps 752 mmHg 57%
    02:00 +29°C° 0 mm 3 mps 751 mmHg 62%
    03:00 +29°C° 0 mm 3 mps 751 mmHg 66%
    04:00 +29°C° 0 mm 3 mps 752 mmHg 72%
    05:00 +28°C° 0 mm 2 mps 752 mmHg 78%
    06:00 +28°C° 0 mm 2 mps 753 mmHg 83%
    07:00 +30°C° 0 mm 2 mps 753 mmHg 73%
    08:00 +32°C° 0 mm 2 mps 754 mmHg 63%
    09:00 +36°C° 0 mm 3 mps 754 mmHg 53%
    10:00 +38°C° 0 mm 3 mps 754 mmHg 45%
    11:00 +40°C° 0 mm 3 mps 753 mmHg 38%
    12:00 +42°C° 0 mm 2 mps 753 mmHg 30%
    13:00 +43°C° 0 mm 3 mps 752 mmHg 28%
    14:00 +43°C° 0 mm 3 mps 751 mmHg 27%
    15:00 +44°C° 0 mm 3 mps 750 mmHg 25%
    16:00 +42°C° 0 mm 3 mps 750 mmHg 30%
    17:00 +40°C° 0 mm 3 mps 750 mmHg 35%
    18:00 +38°C° 0 mm 3 mps 750 mmHg 40%
    19:00 +36°C° 0 mm 3 mps 751 mmHg 50%
    20:00 +35°C° 0 mm 4 mps 751 mmHg 60%
    21:00 +33°C° 0 mm 4 mps 752 mmHg 69%
    22:00 +32°C° 0 mm 4 mps 752 mmHg 73%
    23:00 +32°C° 0 mm 4 mps 752 mmHg 76%

    28 Abril, Domingo

    Tiempo Temperatura Precipitaciones Viento Presión Humedad
    00:00 +30°C° 0 mm 5 mps 752 mmHg 79%
    01:00 +30°C° 0 mm 4 mps 752 mmHg 81%
    02:00 +30°C° 0 mm 3 mps 752 mmHg 83%
    03:00 +29°C° 0 mm 3 mps 752 mmHg 85%
    04:00 +30°C° 0.1 mm 3 mps 752 mmHg 84%
    05:00 +30°C° 0.1 mm 3 mps 752 mmHg 82%
    06:00 +30°C° 0.1 mm 3 mps 753 mmHg 81%
    07:00 +33°C° 0 mm 3 mps 753 mmHg 74%
    08:00 +34°C° 0 mm 4 mps 754 mmHg 66%
    09:00 +36°C° 0 mm 5 mps 754 mmHg 58%
    10:00 +37°C° 0 mm 5 mps 754 mmHg 52%
    11:00 +40°C° 0 mm 5 mps 753 mmHg 46%
    12:00 +42°C° 0 mm 5 mps 753 mmHg 39%
    13:00 +42°C° 0 mm 5 mps 752 mmHg 38%
    14:00 +42°C° 0 mm 6 mps 751 mmHg 37%
    15:00 +44°C° 0 mm 6 mps 750 mmHg 36%
    16:00 +41°C° 0 mm 6 mps 750 mmHg 42%
    17:00 +39°C° 0 mm 6 mps 750 mmHg 49%
    18:00 +36°C° 0 mm 6 mps 750 mmHg 55%
    19:00 +35°C° 0 mm 6 mps 751 mmHg 62%
    20:00 +34°C° 0 mm 6 mps 751 mmHg 68%
    21:00 +32°C° 0 mm 6 mps 752 mmHg 75%
    22:00 +32°C° 0 mm 6 mps 752 mmHg 77%
    23:00 +30°C° 0 mm 5 mps 752 mmHg 79%
    Mostrar más